Find Starlink 32091

NORAD ID: 59684 Int'l Des: 2024-086 Owner: SPXS Country: US Constellation: starlink operational
LEOCIRCULAR

現在のビュー

3D地球を読み込み中...

About Starlink 32091

Starlink 32091 (NORAD 59684) is a starlink constellation satellite (v2 mini) launched May 8, 2024 by SPXS of US. It operates in LEO, CIRCULAR orbit with a mass of 730.00 kg.

次回通過

Passes for default location (London). Set your location on the main map for personalized predictions.

高度履歴

Loading altitude history...

軌道要素

1 59684U 24086C 26263.37640668 .00000073 00000-0 12193-4 0 9991
2 59684 43.0026 32.9116 0001599 271.6608 88.4061 15.27576653133983
Epoch: Sep 20, 2026 • Age: 26 hours

現在のステータス

高度 494.2 km
遠地点 / 近地点 N/A
速度 7.62 km/s
衛星直下点 -40.03°S, 101.53°E
打ち上げ日 May 8, 2024
運用期間 2.3 years
タイプ internet

技術仕様

分類 Payload
質量 730.00 kg
乾燥質量 700.00 kg
長さ 0.30 m
スパン 29.00 m
形状 ? Box + pan
製造者 SPXS
バスタイプ Starlink V2M
フェーズステータス In Orbit
所有者/国 SPXS/US

Most Searched